Location: Bullenkuhlen
(53.7689°N, 9.7495°E)
Time: 18:06:23
(UTC+00:00)

Cosmos 220 Rocket - Pass Details

Date: 09 April 2020
Orbit: 574 x 618 km, 74.0° (Epoch: 01 June)

Event Time Altitude Azimuth Distance (km) Brightness Sun altitude
Rises 19:11:50 0° 335° (NNW) 2,837 8.4 -9.0°
Reaches altitude 10° 19:14:05 10° 339° (NNW) 1,938 7.4 -9.3°
Maximum altitude 19:18:23 62° 60° (ENE) 680 4.1 -9.9°
Enters shadow 19:22:18 12° 141° (SE) 1,794 5.9 -10.4°
